Overview Statistics Trail Chart Weather Telemetry Raw packets
 

This is the latest recevied weather packets stored in our database for station/object PA3DZX-13. If no packets are shown the sender has not sent any weather packets the latest 10 day(s).

<< 20 21 22 23 24 25 26 >>
Time Temp. Humidity Pressure Rain* Wind** Luminosity Snow
1788139312 16.67° C 81% 1009.2 hPa 0 mm - - -
1788138412 16.67° C 80% 1009.4 hPa 0 mm - - -
1788137511 15.56° C 83% 1009.6 hPa 0 mm - - -
1788136611 15.56° C 83% 1009.5 hPa 0 mm - - -
1788135711 15.56° C 84% 1009.5 hPa 0 mm - - -
1788134811 15.56° C 84% 1009.6 hPa 0 mm - - -
1788133911 15.56° C 83% 1009.7 hPa 0 mm - - -
1788133012 15.56° C 82% 1009.7 hPa 0 mm - - -
1788132111 16.67° C 81% 1009.9 hPa 0 mm - - -
1788131211 16.67° C 82% 1010 hPa 0 mm - - -
1788130310 15.56° C 84% 1010.2 hPa 0 mm - - -
1788129410 15.56° C 88% 1010.4 hPa 0 mm - - -
1788128509 15.56° C 87% 1010.5 hPa 0 mm - - -
1788127609 15.56° C 88% 1010.7 hPa 0 mm - - -
1788126709 15.56° C 88% 1010.6 hPa 0 mm - - -
1788125809 15° C 90% 1010.8 hPa 0 mm - - -
1788124908 15° C 93% 1010.9 hPa 0 mm - - -
1788124008 15° C 95% 1011.1 hPa 0 mm - - -
1788123108 15° C 94% 1011.1 hPa 0 mm - - -
1788122208 13.89° C 94% 1011.1 hPa 0 mm - - -
1788121308 13.89° C 94% 1011.1 hPa 0 mm - - -
1788120408 13.89° C 95% 1011.2 hPa 0 mm - - -
1788119507 15° C 95% 1011.3 hPa 0 mm - - -
1788118607 15° C 95% 1011.4 hPa 0 mm - - -
1788117709 15.56° C 95% 1011.5 hPa 0 mm - - -

* Rain latest hour (hover to see other rain measurements)
** Current wind speed in m/s (hover to see current wind gust speed)